User: anonymous   Login
Location: *
(51.5000°N, 0.1100°W)
Time: 07:44:36
(UTC+00:00)
Language:

MOZ.5/SAFIR/RUBIN 5/SL-8 - Orbit

View from above orbital plane
View from above orbital plane
View from above satellite
View from above satellite

Ground track
Ground track

The orbit data is extracted from the following two-line orbital elements,

1 28898U 05043G   24202.20876752  .00001483  00000-0  30220-3 0  9990
2 28898  98.2574 330.5436 0018952   4.0258 356.1092 14.62378833997938
Epoch (UTC): 20 July 2024 05:00:37
Eccentricity: 0.0018952
inclination: 98.2574°
perigee height: 672 km
apogee height: 699 km
right ascension of ascending node: 330.5436°
argument of perigee: 4.0258°
revolutions per day: 14.62378833
mean anomaly at epoch: 356.1092°
orbit number at epoch: 99793

The dashed part of the orbit path shows where the satellite is in the earth's shadow,  

DLR